Home   Weather   Niagara Falls   Past weeks

Flag for Canada Past Weather in Niagara Falls, Ontario, Canada — Yesterday and Last 2 Weeks

Now
67 °F

Scattered clouds.


Feels Like: 67 °F
Forecast: N/A
Wind: 8 mph from Northeast

Location: Niagara Falls International Airport

Current Time: Sep 25, 2016 at 5:02:58 PM

Latest Report: Sep 25, 2016 at 3:53 PM


Visibility: 10 mi

Pressure: 30.20 "Hg

Humidity: 42%

Dew Point: 43 °F

Location of Niagara FallsLocation

Past Weather in Niagara Falls — Graph

°F

Niagara Falls Temperature Yesterday

Maximum temperature yesterday: 66 °F (at 2:53 PM)
Minimum temperature yesterday: 49 °F (at 11:53 PM)
Average temperature yesterday: 58 °F

High & Low Weather Summary for the Past Weeks

 TemperatureHumidityPressure
High89 °F (Sep 10, 3:53 PM)94% (Sep 14, 7:53 AM)30.35 "Hg (Sep 14, 7:53 AM)
Low47 °F (Sep 25, 12:53 AM)28% (Sep 21, 12:53 PM)29.67 "Hg (Sep 10, 5:53 PM)
Average68 °F67%30.10 "Hg
* Reported Sep 10 3:53 PM — Sep 25 3:53 PM, Niagara Falls, Weather by CustomWeather, © 2016

Note: Actual official high and low records may vary slightly from our data, if they occured in-between our weather recording intervals... More about our weather records

Advertising

Niagara Falls Weather History for the Previous 24 Hours

Scroll right to see more
 ConditionsComfort  
Time TempWeatherWind HumidityBarometerVisibility
3:53 PM
Sun, Sep 25
67 °FScattered clouds.8 mph42%30.20 "Hg10 mi
2:53 PM67 °FScattered clouds.10 mph42%30.20 "Hg10 mi
1:53 PM67 °FScattered clouds.6 mph36%30.22 "Hg10 mi
12:53 PM65 °FScattered clouds.7 mph36%30.25 "Hg10 mi
11:53 AM64 °FPassing clouds.No wind43%30.25 "Hg10 mi
10:53 AM63 °FPassing clouds.8 mph48%30.26 "Hg10 mi
9:53 AM60 °FScattered clouds.7 mph53%30.27 "Hg10 mi
8:53 AM54 °FPassing clouds.6 mph69%30.27 "Hg10 mi
7:53 AM47 °FPassing clouds.No wind86%30.26 "Hg10 mi
7:00 AM47 °FPassing clouds.No wind80%30.23 "Hg10 mi
5:53 AM49 °FClear.5 mph77%30.24 "Hg10 mi
4:53 AM49 °FClear.3 mph74%30.24 "Hg10 mi
3:53 AM48 °FClear.No wind77%30.24 "Hg10 mi
2:53 AM49 °FClear.No wind74%30.24 "Hg10 mi
1:53 AM50 °FPassing clouds.No wind71%30.24 "Hg10 mi
12:53 AM47 °FPassing clouds.No wind77%30.25 "Hg10 mi
11:53 PM
Sat, Sep 24
49 °FClear.No wind74%30.24 "Hg10 mi
10:53 PM50 °FClear.No wind71%30.24 "Hg10 mi
9:53 PM51 °FClear.No wind69%30.24 "Hg10 mi
8:53 PM54 °FClear.No wind59%30.23 "Hg10 mi
7:53 PM58 °FClear.No wind50%30.22 "Hg10 mi
6:53 PM62 °FSunny.3 mph39%30.23 "Hg10 mi
5:53 PM64 °FPassing clouds.7 mph37%30.23 "Hg10 mi
Weather by CustomWeather, © 2016

See weather overviewHow to use our weather pages